TimeEDT,TemperatureF,Dew PointF,Humidity,Sea Level PressureIn,VisibilityMPH,Wind Direction,Wind SpeedMPH,Gust SpeedMPH,PrecipitationIn,Events,Conditions,WindDirDegrees,DateUTC
12:55 AM,39.2,39.2,100,30.23,3.0,Calm,Calm,-,N/A,,Clear,0,2012-10-11 04:55:00
1:15 AM,39.2,39.2,100,30.24,2.5,Calm,Calm,-,N/A,,Clear,0,2012-10-11 05:15:00
1:35 AM,39.2,39.2,100,30.24,2.5,Calm,Calm,-,N/A,,Clear,0,2012-10-11 05:35:00
1:55 AM,39.2,39.2,100,30.24,1.0,Calm,Calm,-,N/A,,Overcast,0,2012-10-11 05:55:00
2:15 AM,39.2,39.2,100,30.25,5.0,Calm,Calm,-,N/A,,Overcast,0,2012-10-11 06:15:00
2:35 AM,39.2,39.2,100,30.25,1.8,Calm,Calm,-,N/A,,Mostly Cloudy,0,2012-10-11 06:35:00
2:55 AM,37.4,37.4,100,30.25,0.2,Calm,Calm,-,N/A,Fog,Fog,0,2012-10-11 06:55:00
3:15 AM,37.4,37.4,100,30.25,0.2,Calm,Calm,-,N/A,Fog,Fog,0,2012-10-11 07:15:00
3:55 AM,37.4,35.6,93,30.25,0.8,Calm,Calm,-,N/A,,Overcast,0,2012-10-11 07:55:00
4:15 AM,35.6,35.6,100,30.25,0.2,Calm,Calm,-,N/A,Fog,Fog,0,2012-10-11 08:15:00
4:35 AM,35.6,35.6,100,30.25,0.2,Calm,Calm,-,N/A,Fog,Fog,0,2012-10-11 08:35:00
4:55 AM,35.6,35.6,100,30.25,1.5,Calm,Calm,-,N/A,,Mostly Cloudy,0,2012-10-11 08:55:00
5:15 AM,33.8,33.8,100,30.26,8.0,Calm,Calm,-,N/A,,Clear,0,2012-10-11 09:15:00
5:35 AM,35.6,33.8,93,30.26,3.0,Calm,Calm,-,N/A,,Clear,0,2012-10-11 09:35:00
5:55 AM,33.8,33.8,100,30.26,8.0,Calm,Calm,-,N/A,,Clear,0,2012-10-11 09:55:00
6:15 AM,33.8,33.8,100,30.27,0.2,Calm,Calm,-,N/A,Fog,Fog,0,2012-10-11 10:15:00
6:35 AM,33.8,33.8,100,30.28,1.8,Calm,Calm,-,N/A,,Mostly Cloudy,0,2012-10-11 10:35:00
6:55 AM,32.0,32.0,100,30.29,0.5,Calm,Calm,-,N/A,Fog,Fog,0,2012-10-11 10:55:00
7:15 AM,32.0,32.0,100,30.28,0.5,Calm,Calm,-,N/A,Fog,Fog,0,2012-10-11 11:15:00
7:35 AM,32.0,32.0,100,30.28,5.0,Calm,Calm,-,N/A,,Clear,0,2012-10-11 11:35:00
7:55 AM,32.0,32.0,100,30.28,8.0,Calm,Calm,-,N/A,,Clear,0,2012-10-11 11:55:00
8:15 AM,35.6,35.6,100,30.28,10.0,NE,3.5,-,N/A,,Clear,50,2012-10-11 12:15:00
8:35 AM,37.4,37.4,100,30.28,10.0,ENE,4.6,-,N/A,,Clear,60,2012-10-11 12:35:00
8:55 AM,39.2,37.4,93,30.29,10.0,ENE,3.5,-,N/A,,Clear,60,2012-10-11 12:55:00
9:15 AM,42.8,37.4,81,30.30,10.0,Calm,Calm,-,N/A,,Clear,0,2012-10-11 13:15:00
9:35 AM,44.6,37.4,76,30.30,10.0,NE,3.5,-,N/A,,Clear,50,2012-10-11 13:35:00
9:55 AM,46.4,39.2,76,30.30,10.0,Calm,Calm,-,N/A,,Clear,0,2012-10-11 13:55:00
10:15 AM,48.2,39.2,71,30.30,10.0,East,3.5,-,N/A,,Clear,90,2012-10-11 14:15:00
10:35 AM,50.0,37.4,62,30.30,10.0,Calm,Calm,-,N/A,,Clear,0,2012-10-11 14:35:00
10:55 AM,51.8,37.4,58,30.30,10.0,Calm,Calm,-,N/A,,Clear,0,2012-10-11 14:55:00
11:15 AM,53.6,39.2,58,30.30,10.0,Calm,Calm,-,N/A,,Clear,0,2012-10-11 15:15:00
11:35 AM,55.4,37.4,51,30.29,10.0,Calm,Calm,-,N/A,,Clear,0,2012-10-11 15:35:00
11:55 AM,57.2,35.6,44,30.29,10.0,Calm,Calm,-,N/A,,Clear,0,2012-10-11 15:55:00
12:15 PM,57.2,37.4,48,30.29,10.0,Calm,Calm,-,N/A,,Clear,0,2012-10-11 16:15:00
12:35 PM,57.2,39.2,51,30.28,10.0,Variable,6.9,-,N/A,,Clear,0,2012-10-11 16:35:00
12:55 PM,60.8,39.2,45,30.27,10.0,Calm,Calm,-,N/A,,Clear,0,2012-10-11 16:55:00
1:15 PM,60.8,37.4,42,30.26,10.0,WSW,5.8,-,N/A,,Clear,240,2012-10-11 17:15:00
1:55 PM,62.6,37.4,39,30.24,10.0,West,6.9,-,N/A,,Clear,270,2012-10-11 17:55:00
2:15 PM,62.6,37.4,39,30.23,10.0,West,5.8,-,N/A,,Clear,270,2012-10-11 18:15:00
2:35 PM,62.6,39.2,42,30.23,10.0,Variable,6.9,-,N/A,,Clear,0,2012-10-11 18:35:00
2:55 PM,62.6,39.2,42,30.23,10.0,WNW,6.9,-,N/A,,Clear,290,2012-10-11 18:55:00
3:15 PM,64.4,39.2,40,30.23,10.0,West,6.9,-,N/A,,Clear,280,2012-10-11 19:15:00
3:35 PM,64.4,37.4,37,30.22,10.0,WNW,5.8,-,N/A,,Clear,290,2012-10-11 19:35:00
3:55 PM,64.4,39.2,40,30.23,10.0,West,6.9,-,N/A,,Clear,280,2012-10-11 19:55:00
4:15 PM,64.4,39.2,40,30.22,10.0,West,6.9,-,N/A,,Clear,270,2012-10-11 20:15:00
4:55 PM,64.4,35.6,34,30.22,10.0,WNW,6.9,-,N/A,,Clear,290,2012-10-11 20:55:00
5:15 PM,64.4,35.6,34,30.22,10.0,West,5.8,-,N/A,,Clear,260,2012-10-11 21:15:00
5:35 PM,64.4,37.4,37,30.22,10.0,West,4.6,-,N/A,,Clear,260,2012-10-11 21:35:00
6:15 PM,57.2,46.4,67,30.22,10.0,Calm,Calm,-,N/A,,Clear,0,2012-10-11 22:15:00
6:35 PM,53.6,46.4,77,30.23,10.0,Calm,Calm,-,N/A,,Clear,0,2012-10-11 22:35:00
6:55 PM,51.8,44.6,76,30.23,10.0,Calm,Calm,-,N/A,,Clear,0,2012-10-11 22:55:00
7:15 PM,50.0,44.6,82,30.23,10.0,Calm,Calm,-,N/A,,Clear,0,2012-10-11 23:15:00
7:35 PM,46.4,42.8,87,30.24,10.0,Calm,Calm,-,N/A,,Clear,0,2012-10-11 23:35:00
7:55 PM,46.4,42.8,87,30.25,10.0,Calm,Calm,-,N/A,,Clear,0,2012-10-11 23:55:00
8:15 PM,46.4,42.8,87,30.25,10.0,Calm,Calm,-,N/A,,Clear,0,2012-10-12 00:15:00
8:35 PM,44.6,41.0,87,30.25,10.0,Calm,Calm,-,N/A,,Clear,0,2012-10-12 00:35:00
8:55 PM,42.8,41.0,93,30.25,10.0,Calm,Calm,-,N/A,,Clear,0,2012-10-12 00:55:00
9:15 PM,42.8,41.0,93,30.26,10.0,Calm,Calm,-,N/A,,Scattered Clouds,0,2012-10-12 01:15:00
9:35 PM,42.8,41.0,93,30.26,10.0,Calm,Calm,-,N/A,,Mostly Cloudy,0,2012-10-12 01:35:00
9:55 PM,42.8,41.0,93,30.26,10.0,Calm,Calm,-,N/A,,Partly Cloudy,0,2012-10-12 01:55:00
10:15 PM,42.8,41.0,93,30.26,10.0,Calm,Calm,-,N/A,,Partly Cloudy,0,2012-10-12 02:15:00
10:55 PM,42.8,41.0,93,30.26,10.0,Calm,Calm,-,N/A,,Mostly Cloudy,0,2012-10-12 02:55:00
11:15 PM,42.8,41.0,93,30.26,10.0,Calm,Calm,-,N/A,,Partly Cloudy,0,2012-10-12 03:15:00
11:55 PM,42.8,39.2,87,30.26,10.0,Calm,Calm,-,N/A,,Clear,0,2012-10-12 03:55:00